www.pogodaiklimat.ru

Погода и климат >> Архив погоды >> Россия >> Томская область >> Ванжиль-Кынак


АРХИВ ПОГОДЫ в Ванжиль-Кынаке

Время (UTC), дата Ветер
(напр.,м/с)
 
Видим.   Явления Облачность Т
(С)
Тd
(С)
f
(%)
Тe
(С)
Тes
(С)
Комфортность P
(гПа)
Po
(гПа)
Тmin
(С)
Tmax
(С)
R
(мм)
R24
(мм)
S
(см)
15 12.06 З 1 10 км 10/6 600 м
[Sc diur, vesp As op Ci fib]
+13.4 +12.3 93 +14 +14 999.7 988.0
18 12.06 С 1 4000 м слаб. ливневой дождь 10/10 300 м
[Cb cap]
+12.4 +11.8 96 +12 +12 996.9 985.2
21 12.06 штиль 0 4000 м слаб. ливневой дождь 10/10 300 м
[Cb cap]
+12.4 +12.4 100 +12 +12 994.0 982.2
00 13.06 штиль 0 4000 м слаб. ливневой дождь 10/10 300 м
[Cb cap]
+13.6 +13.2 97 +13 +13 992.0 981.0 +12.3 2
03 13.06 Ю 3 4000 м дымка 10/10 300 м
[Cb cap]
+15.0 +13.9 93 +14 +14 992.6 981.0
06 13.06 Ю 3 10 км 8/6 600 м
[Cu med, cong Ci fib]
+19.4 +12.7 65 +21 +25 комфорт 992.5 981.1
09 13.06 штиль 0 4000 м слаб. ливневой дождь 10/10 600 м
[Cb cap]
+16.5 +14.6 89 +16 +16 991.3 979.8
12 13.06 Ю 4 4000 м в посл. час гроза {ливн. осадки} 10/10 300 м
[Cb cap]
+17.4 +12.8 74 +17 +17 991.0 979.5 +30.0 4
15 13.06 штиль 0 10 км {ливн. осадки} 10/6 600 м
[Sc diur, vesp As trans Ci fib]
+14.4 +11.0 80 +14 +14 991.3 979.7
18 13.06 Ю 4
{10}
50 км {ливн. осадки} 10/8 300 м
[Cb cap As op Ci fib]
+9.5 +7.6 88 +7 +7 994.0 982.2
21 13.06 З 3
{10}
10 км 10/6 300 м
[Cb cap Ci fib]
+5.5 +2.3 80 +2 +2 996.1 984.1
00 14.06 ЮЗ 2 10 км 10/6 600 м
[Cu med, cong As trans Ci fib]
+5.2 +3.3 88 +3 +3 997.9 985.8 +4.6 0.5
03 14.06 З 3 10 км 9/9 600 м
[Cu med, cong]
+9.3 +1.9 60 +7 +8 998.4 986.5
06 14.06 ЮЗ 4
{10}
10 км {ливн. осадки} 10/10 300 м
[Cb cap]
+9.8 +3.4 64 +7 +7 1000.0 988.1
09 14.06 З 3 10 км 10/10 600 м
[Cb cap]
+10.6 +2.2 56 +9 +9 1001.8 989.9
12 14.06 З 3 10 км 10/8 600 м
[Sc diur, vesp Ci fib]
+11.4 +2.1 53 +10 +10 1002.2 990.4 +11.4 0.3
15 14.06 Ю 1 10 км 3/1 600 м
[Sc diur, vesp Ci fib]
+9.4 +2.0 60 +9 +9 1004.0 992.1
18 14.06 штиль 0 50 км 3/0
[Ac lent Ci sp]
+3.2 +2.2 93 +2 +2 1003.9 991.6
21 14.06 Ю 1 10 км 10/10 600 м
[Sc]
+3.8 +2.8 93 +2 +2 1004.0 991.8
00 15.06 штиль 0 4000 м слаб. ливневой дождь 10/8 300 м
[Cb cap Ac und]
+4.9 +4.2 95 +4 +4 1004.4 992.2 +3.2 0.0
03 15.06 Ю 1 4000 м 10/10 300 м
[Cb cap]
+5.0 +3.6 91 +4 +4 1005.3 993.1
06 15.06 С 1 10 км {ливн. осадки} 8/6 600 м
[Cu med, cong Ci fib]
+8.8 +4.8 76 +8 +14 1007.7 995.6
09 15.06 З 1 10 км {ливн. осадки} 8/8 600 м
[Sc diur, vesp]
+11.8 +3.8 58 +12 +14 1008.7 996.8
12 15.06 З 1 10 км {ливн. осадки} 8/8 600 м
[Sc diur, vesp]
+13.0 +0.7 43 +13 +14 1008.4 996.5 +14.0 3
15 15.06 З 1 10 км 10/6 600 м
[Sc diur, vesp Ac trans Ci fib]
+9.0 +2.8 65 +9 +9 1010.0 997.9
18 15.06 З 1 10 км 10/10 600 м
[Sc]
+6.2 +0.7 68 +5 +5 1010.4 998.2
21 15.06 штиль 0 10 км 10/10 600 м
[Sc]
+6.6 +3.3 79 +6 +6 1009.9 997.7
00 16.06 В 1 10 км 10/10 600 м
[Sc]
+8.2 +6.0 86 +7 +7 1009.2 997.1 +4.5
03 16.06 В 1 10 км 10/10 600 м
[Sc]
+11.7 +4.9 63 +12 +12 1008.1 996.2
06 16.06 В 1 10 км 10/10 600 м
[Sc]
+13.2 +3.4 51 +14 +14 1006.9 994.9
09 16.06 СВ 1 10 км 8/8 600 м
[Cu med, cong]
+14.8 +2.8 44 +16 +18 1005.2 993.5
12 16.06 В 1 10 км 10/6 600 м
[Sc Ac und Ci fib]
+15.4 +2.5 42 +16 +17 1004.6 992.9 +16.2
15 16.06 штиль 0 10 км 10/10 600 м
[Sc diur, vesp]
+12.4 +7.0 70 +12 +12 1004.7 992.9
18 16.06 штиль 0 4000 м слаб. ливневой дождь 10/10 600 м
[Cb cap]
+12.4 +7.0 70 +12 +12 1004.5 992.7
21 16.06 штиль 0 10 км {ливн. осадки} 10/10 600 м
[Sc]
+9.0 +7.3 89 +8 +8 1004.2 992.3
00 17.06 штиль 0 10 км 10/0
[Ac lent]
+9.4 +8.2 92 +9 +9 1003.8 991.9 +9.0 0.0
03 17.06 В 2 10 км 9/9 600 м
[Sc diur, vesp]
+12.0 +7.5 74 +11 +12 1003.5 991.7
06 17.06 З 2 10 км 8/6 600 м
[Cu med, cong Ac lent]
+17.0 -0.2 31 +17 +21 1004.1 992.4
09 17.06 Ю 2 10 км 8/6 600 м
[Cu med, cong Ac trans]
+17.6 +4.8 43 +18 +21 1004.0 992.4
12 17.06 Ю 2 10 км 8/8 600 м
[Sc]
+17.4 +5.4 45 +18 +19 1003.8 992.2 +18.5
15 17.06 Ю 2 10 км 8/8 600 м
[Sc diur, vesp]
+16.0 +6.7 54 +16 +16 1004.3 992.6
18 17.06 Ю 4 50 км 6/4 600 м
[Sc diur, vesp Ci fib]
+10.6 +7.7 82 +8 +8 1004.7 992.8
21 17.06 Ю 2 10 км 6/0
[Ci sp]
+9.4 +7.7 89 +8 +8 1003.9 992.0
00 18.06 Ю 2 10 км 10/6 600 м
[Sc diur, vesp Ci sp]
+12.0 +9.6 85 +11 +12 1003.8 992.0 +8.6
03 18.06 10 км н/о +15.5 +9.5 67 +15 +17 1005.5 993.8
06 18.06 Ю 3 10 км {ливн. осадки} 10/8 300 м
[Cb cap Ci fib]
+16.0 -2.5 28 +16 +18 1004.5 993.0
09 18.06 н/о +10.0 1004.5 993.0
12 18.06 Ю 2 10 км {ливн. осадки} 10/8 300 м
[Cb cap Ci fib]
+20.0 +10.0 53 +22 +22 комфорт 1002.3 990.8 +21.5 0.3
15 18.06 В 1 10 км 10/8 600 м
[Sc Ac lent Ci fib]
+16.2 +14.5 90 +17 +17 1001.6 989.9
18 18.06 Ю 4
{13}
4000 м слаб. ливневой дождь 10/10 300 м
[Cb cap]
+13.8 +11.6 87 +12 +12 1002.2 990.5
21 18.06 Ю 6
{12}
10 км 10/10 300 м
[Cb cap]
+13.5 +11.4 87 +11 +11 998.6 986.9
00 19.06 Ю 2
{12}
10 км {ливн. осадки} 10/8 600 м
[Sc Ac trans Ci fib]
+13.0 +12.3 96 +12 +12 984.3 +13.0 2
03 19.06 Ю 2 4000 м слаб. ливневой дождь 10/10 300 м
[Cb cap]
+13.9 +13.4 97 +13 +13 994.7 983.1
06 19.06 ЮВ 3 4000 м слаб. ливневой дождь 8/6 300 м
[Cb cap Ci sp]
+13.8 +12.3 91 +13 +17 993.9 982.3
09 19.06 З 2 4000 м слаб. ливневой дождь 10/10 300 м
[Cb cap]
+15.0 +13.2 89 +15 +15 995.9 984.3
12 19.06 Ю 2 10 км в посл. час ливневой дождь 8/6 600 м
[Sc diur, vesp Ac trans Ci fib]
+13.0 +12.3 96 +12 +13 1002.5 990.8 +17.0 11

 

Местоположение метеостанции Ванжиль-Кынак (Томская область, Россия): широта 60.35 долгота 84.08 высота над уровнем моря 99 м.

В архиве по умолчанию представлена погода в Ванжиль-Кынаке за последнюю неделю. Архивные данные за месяц целиком и за предыдущие месяцы, начиная с января 2011 года, Вы можете получить, выбрав интересующий диапазон дат из раскрывающегося списка и нажав кнопку "Ввод!".


*Определитесь, кто Вы:
робот инопланетянин человек

Внимание! Время в таблицах - всемирное. Для получения местного времени необходимо прибавить поправку, которая равна 7 ч.

Смотрите также архив погоды в соседних городах и на ближайших метеорологических станциях:

Погода в Напасе (Томская область, Россия) (131 км)
Погода в Березовке (Томская область, Россия) (140 км)
Погода в Корликах (Ханты-Мансийский АО, Россия) (159 км)
Погода в Ларьяке (Ханты-Мансийский АО, Россия) (224 км)
Погода в Каргасоке (Томская область, Россия) (230 км)
Погода в Колпашево (Томская область, Россия) (235 км)
Погода в Парабели (Томская область, Россия) (235 км)
Погода в Сыме (Красноярский край, Россия) (236 км)
Погода в Степановке (Томская область, Россия) (243 км)
Погода в Усть-Озерном (Томская область, Россия) (263 км)

Пояснения к столбцам:

Ветер - указаны скорость ветра в м/с - средняя за 10 мин, порывы в срок и между сроками (в фигурных скобках) и направление, откуда дует ветер: С - северный, СВ - северо-восточный, В - восточный, ЮВ - юго-восточный, Ю - южный, ЮЗ - юго-западный, З - западный, СЗ - северо-западный.
Видимость - горизонтальная дальность видимости в метрах или километрах. При видимости от 1 до 10 км при отсутствии осадков обычно наблюдается дымка, при ухудшении видимости до 1 км и менее - туман. В сухую погоду видимость может ухудшаться дымом, пылью или мглою.
Явления - указаны атмосферные явления, наблюдавшиеся в срок или в последний час перед сроком; фигурными скобками обозначены явления, наблюдавшиеся между сроками (за 1-3 часа до срока); квадратными скобками обозначены град или гололедные отложения с указанием их диаметра в мм.
Облачность - указаны через наклонную черту общая и нижняя облачность в баллах и высота нижней границы облаков в метрах; квадратными скобками обозначены формы облаков: Ci - перистые, Cs - перисто-слоистые, Cc - перисто-кучевые, Ac - высококучевые, As - высокослоистые, Sc - слоисто-кучевые, Ns - слоисто-дождевые, Cu - кучевые, Cb - кучево-дождевые. Подробнее классификацию облаков см. в Атласе облаков (PDF).
T - Температура воздуха - температура, измеренная на высоте 2 м над землей.
Td - Температура точки росы - температура, при понижении до которой содержащийся в воздухе водяной пар достигнет насыщения.
f - Относительная влажность воздуха - влажноcть воздуха, измеренная на высоте 2 м над землей.
Te - Эффективная температура - температура, которую ощущает одетый по сезону человек в тени. Характеристика душности погоды. При расчете учитывается влияние влажности воздуха и скорости ветра на теплоощущения человека.
Tes - Эффективная температура на солнце - температура, которую ощущает человек, с поправкой на солнечный нагрев. Характеристика знойности погоды. Зависит от высоты солнца над горизонтом, облачности и скорости ветра. Ночью, в пасмурную погоду, а также при ветре 12 м/с и более поправка равна нулю.
P - Атмосферное давление - приведенное к уровню моря атмосферное давление.
Po - Атмосферное давление - измеренное на уровне метеостанции атмосферное давление.
Tmin - Минимальная температура - минимум температуры воздуха на высоте 2 м над землей.
Tmax - Максимальная температура - максимум температуры воздуха на высоте 2 м над землей.
R - Количество осадков - Количество выпавших осадков за период времени, мм. При наведении курсора мыши на число - период времени, за который выпало указанное количество осадков.
R24 - Количество осадков - Количество выпавших осадков за 24 часа, мм.
S - Снежный покров - Высота снежного покрова, см. При наведении курсора мыши на число - состояние снежного покрова и степень покрытия местности в баллах.